When you browse on this site, cookies collect data to enhance your experience and personalize the content and advertising you see.
Visit our Privacy Policy to learn more. By continuing to use the site, you agree to this use of cookies and data.
EN

Hourly Weather Dubki

Today, 23 September, Wednesday

Time Temperature Precipitation Wind Pressure Humidity
00:00 +10°C° 0 mm 2 mps 741 mmHg 95%
01:00 +10°C° 0 mm 2 mps 741 mmHg 96%
02:00 +10°C° 0 mm 2 mps 741 mmHg 96%
03:00 +10°C° 0 mm 2 mps 741 mmHg 96%
04:00 +10°C° 0 mm 1 mps 741 mmHg 96%
05:00 +10°C° 0 mm 1 mps 741 mmHg 96%
06:00 +11°C° 0 mm 1 mps 742 mmHg 93%
07:00 +12°C° 0 mm 2 mps 742 mmHg 90%
08:00 +14°C° 0 mm 2 mps 742 mmHg 86%
09:00 +15°C° 0 mm 2 mps 742 mmHg 80%
10:00 +17°C° 0 mm 2 mps 742 mmHg 74%
11:00 +19°C° 0 mm 2 mps 742 mmHg 68%
12:00 +20°C° 0 mm 2 mps 742 mmHg 66%
13:00 +20°C° 0 mm 2 mps 742 mmHg 64%
14:00 +21°C° 0 mm 3 mps 742 mmHg 62%
15:00 +20°C° 0 mm 2 mps 741 mmHg 69%
16:00 +19°C° 0 mm 2 mps 741 mmHg 76%
17:00 +18°C° 0 mm 2 mps 741 mmHg 82%
18:00 +17°C° 0 mm 2 mps 741 mmHg 86%
19:00 +15°C° 0 mm 2 mps 741 mmHg 90%
20:00 +14°C° 0 mm 2 mps 741 mmHg 94%
21:00 +14°C° 0 mm 2 mps 741 mmHg 93%
22:00 +13°C° 0 mm 2 mps 741 mmHg 92%
23:00 +12°C° 0 mm 2 mps 741 mmHg 91%

Tomorrow, 24 September, Thursday

Time Temperature Precipitation Wind Pressure Humidity
00:00 +12°C° 0 mm 2 mps 741 mmHg 89%
01:00 +12°C° 0 mm 2 mps 741 mmHg 87%
02:00 +10°C° 0 mm 2 mps 742 mmHg 85%
03:00 +10°C° 0 mm 2 mps 742 mmHg 84%
04:00 +10°C° 0 mm 2 mps 742 mmHg 84%
05:00 +9°C° 0 mm 2 mps 742 mmHg 83%
06:00 +10°C° 0 mm 2 mps 742 mmHg 78%
07:00 +12°C° 0 mm 2 mps 742 mmHg 73%
08:00 +13°C° 0 mm 2 mps 742 mmHg 69%
09:00 +15°C° 0 mm 2 mps 742 mmHg 65%
10:00 +16°C° 0 mm 3 mps 742 mmHg 61%
11:00 +18°C° 0 mm 3 mps 742 mmHg 57%
12:00 +19°C° 0 mm 3 mps 742 mmHg 56%
13:00 +19°C° 0 mm 3 mps 742 mmHg 54%
14:00 +20°C° 0 mm 3 mps 742 mmHg 53%
15:00 +19°C° 0 mm 3 mps 742 mmHg 60%
16:00 +17°C° 0 mm 2 mps 742 mmHg 67%
17:00 +16°C° 0 mm 2 mps 742 mmHg 74%
18:00 +15°C° 0 mm 2 mps 742 mmHg 77%
19:00 +14°C° 0 mm 2 mps 742 mmHg 80%
20:00 +13°C° 0 mm 2 mps 742 mmHg 83%
21:00 +13°C° 0 mm 2 mps 742 mmHg 83%
22:00 +12°C° 0 mm 2 mps 742 mmHg 84%
23:00 +12°C° 0 mm 2 mps 742 mmHg 84%

Day after tomorrow, 25 September, Friday

Time Temperature Precipitation Wind Pressure Humidity
00:00 +12°C° 0 mm 2 mps 742 mmHg 84%
01:00 +10°C° 0 mm 2 mps 742 mmHg 84%
02:00 +10°C° 0 mm 2 mps 742 mmHg 85%
03:00 +10°C° 0 mm 2 mps 742 mmHg 86%
04:00 +10°C° 0 mm 2 mps 742 mmHg 86%
05:00 +9°C° 0 mm 2 mps 742 mmHg 87%
06:00 +12°C° 0 mm 2 mps 742 mmHg 82%
07:00 +12°C° 0 mm 3 mps 742 mmHg 76%
08:00 +13°C° 0 mm 3 mps 742 mmHg 70%
09:00 +16°C° 0 mm 3 mps 742 mmHg 66%
10:00 +18°C° 0 mm 3 mps 742 mmHg 61%
11:00 +19°C° 0 mm 3 mps 742 mmHg 57%
12:00 +20°C° 0 mm 3 mps 742 mmHg 55%
13:00 +21°C° 0 mm 4 mps 742 mmHg 54%
14:00 +21°C° 0 mm 4 mps 741 mmHg 53%
15:00 +20°C° 0 mm 3 mps 741 mmHg 59%
16:00 +19°C° 0 mm 3 mps 741 mmHg 66%
17:00 +17°C° 0 mm 3 mps 741 mmHg 72%
18:00 +17°C° 0 mm 3 mps 741 mmHg 74%
19:00 +16°C° 0 mm 3 mps 741 mmHg 76%
20:00 +14°C° 0 mm 4 mps 741 mmHg 78%
21:00 +14°C° 0 mm 3 mps 741 mmHg 80%
22:00 +13°C° 0 mm 3 mps 741 mmHg 82%
23:00 +13°C° 0 mm 3 mps 741 mmHg 84%

26 September, Saturday

Time Temperature Precipitation Wind Pressure Humidity
00:00 +12°C° 0 mm 3 mps 741 mmHg 83%
01:00 +12°C° 0 mm 3 mps 741 mmHg 81%
02:00 +12°C° 0 mm 3 mps 741 mmHg 80%
03:00 +12°C° 0 mm 3 mps 741 mmHg 79%
04:00 +12°C° 0 mm 3 mps 741 mmHg 79%
05:00 +11°C° 0 mm 3 mps 741 mmHg 79%
06:00 +12°C° 0 mm 3 mps 741 mmHg 76%
07:00 +13°C° 0 mm 4 mps 741 mmHg 73%
08:00 +14°C° 0 mm 4 mps 741 mmHg 70%
09:00 +15°C° 0 mm 4 mps 741 mmHg 66%
10:00 +18°C° 0 mm 4 mps 742 mmHg 62%
11:00 +20°C° 0 mm 4 mps 742 mmHg 58%
12:00 +20°C° 0 mm 4 mps 742 mmHg 58%
13:00 +21°C° 0 mm 4 mps 742 mmHg 57%
14:00 +21°C° 0 mm 4 mps 742 mmHg 56%
15:00 +20°C° 0 mm 4 mps 742 mmHg 61%
16:00 +19°C° 0 mm 4 mps 742 mmHg 66%
17:00 +18°C° 0 mm 3 mps 742 mmHg 72%
18:00 +17°C° 0 mm 4 mps 742 mmHg 72%
19:00 +15°C° 0 mm 4 mps 742 mmHg 72%
20:00 +14°C° 0 mm 4 mps 743 mmHg 73%
21:00 +14°C° 0 mm 4 mps 743 mmHg 72%
22:00 +13°C° 0 mm 4 mps 743 mmHg 72%
23:00 +12°C° 0 mm 4 mps 743 mmHg 71%

27 September, Sunday

Time Temperature Precipitation Wind Pressure Humidity
00:00 +12°C° 0 mm 4 mps 742 mmHg 72%
01:00 +12°C° 0 mm 4 mps 742 mmHg 72%
02:00 +11°C° 0 mm 4 mps 742 mmHg 73%
03:00 +11°C° 0 mm 4 mps 742 mmHg 74%
04:00 +11°C° 0 mm 4 mps 742 mmHg 75%
05:00 +11°C° 0 mm 4 mps 742 mmHg 76%
06:00 +12°C° 0 mm 4 mps 742 mmHg 74%
07:00 +12°C° 0 mm 4 mps 742 mmHg 72%
08:00 +13°C° 0 mm 5 mps 742 mmHg 70%
09:00 +15°C° 0 mm 5 mps 743 mmHg 67%
10:00 +16°C° 0 mm 5 mps 743 mmHg 63%
11:00 +19°C° 0 mm 5 mps 743 mmHg 60%
12:00 +19°C° 0 mm 5 mps 743 mmHg 58%
13:00 +20°C° 0 mm 5 mps 743 mmHg 57%
14:00 +20°C° 0 mm 5 mps 743 mmHg 55%
15:00 +19°C° 0 mm 5 mps 742 mmHg 58%
16:00 +17°C° 0 mm 5 mps 742 mmHg 60%
17:00 +17°C° 0 mm 4 mps 742 mmHg 63%
18:00 +15°C° 0 mm 4 mps 742 mmHg 61%
19:00 +14°C° 0 mm 5 mps 742 mmHg 60%
20:00 +13°C° 0 mm 5 mps 743 mmHg 59%
21:00 +12°C° 0 mm 5 mps 742 mmHg 59%
22:00 +12°C° 0 mm 5 mps 742 mmHg 60%
23:00 +10°C° 0 mm 5 mps 742 mmHg 60%

28 September, Monday

Time Temperature Precipitation Wind Pressure Humidity
00:00 +10°C° 0 mm 5 mps 742 mmHg 60%
01:00 +10°C° 0 mm 5 mps 742 mmHg 61%
02:00 +10°C° 0 mm 5 mps 742 mmHg 61%
03:00 +10°C° 0 mm 5 mps 742 mmHg 61%
04:00 +10°C° 0 mm 5 mps 741 mmHg 61%
05:00 +9°C° 0 mm 5 mps 741 mmHg 61%
06:00 +10°C° 0 mm 5 mps 741 mmHg 60%
07:00 +10°C° 0 mm 5 mps 741 mmHg 58%
08:00 +10°C° 0 mm 5 mps 741 mmHg 57%
09:00 +10°C° 0.1 mm 5 mps 741 mmHg 62%
10:00 +10°C° 0.1 mm 5 mps 741 mmHg 67%
11:00 +9°C° 0.1 mm 5 mps 741 mmHg 72%
12:00 +9°C° 0.5 mm 5 mps 741 mmHg 79%
13:00 +9°C° 0.5 mm 5 mps 742 mmHg 85%
14:00 +8°C° 0.5 mm 5 mps 742 mmHg 91%
15:00 +8°C° 0.1 mm 5 mps 742 mmHg 91%
16:00 +8°C° 0.1 mm 4 mps 742 mmHg 92%
17:00 +8°C° 0.1 mm 4 mps 742 mmHg 93%
18:00 +8°C° 0 mm 4 mps 742 mmHg 93%
19:00 +9°C° 0 mm 3 mps 742 mmHg 94%
20:00 +9°C° 0 mm 3 mps 743 mmHg 95%
21:00 +9°C° 0 mm 3 mps 743 mmHg 95%
22:00 +9°C° 0 mm 2 mps 743 mmHg 96%
23:00 +9°C° 0 mm 2 mps 744 mmHg 97%
Show more